"FRM_AIS_EDR_2251.DAT           ",2005-10-15T00:27:19.31 ,"1/0077416034.19020",    0,    0,  274896,"AIS","B1","B1","B1","B1","PISd",0,0,0,0,"B1", 0,15,   0, 0,    0,"AIS","N/A    ","OK ","OK ",    001172.749,    -079.886,    -173.518,    0001.855,    0078.863
"FRM_AIS_EDR_2251.DAT           ",2005-10-15T00:27:26.85 ,"1/0077416041.54619",    0,    1,  274896,"AIS","B1","B1","B1","B1","PISd",0,0,0,0,"B1", 0,15,   0, 0,    0,"AIS","N/A    ","OK ","OK ",    001162.380,    -080.196,    -172.904,    0001.898,    0078.541
"FRM_AIS_EDR_2251.DAT           ",2005-10-15T00:27:34.39 ,"1/0077416049.24682",    0,    2,  274896,"AIS","B1","B1","B1","B1","PISd",0,0,0,0,"B1", 0,15,   0, 0,    0,"AIS","N/A    ","OK ","OK ",    001152.041,    -080.505,    -172.246,    0001.944,    0078.217
"FRM_AIS_EDR_2251.DAT           ",2005-10-15T00:27:41.94 ,"1/0077416056.60282",    0,    3,  274896,"AIS","B1","B1","B1","B1","PISd",0,0,0,0,"B1", 0,15,   0, 0,    0,"AIS","N/A    ","OK ","OK ",    001141.734,    -080.814,    -171.538,    0001.993,    0077.891
"FRM_AIS_EDR_2251.DAT           ",2005-10-15T00:27:49.48 ,"1/0077416064.30345",    0,    4,  274896,"AIS","B1","B1","B1","B1","PISd",0,0,0,0,"B1", 0,15,   0, 0,    0,"AIS","N/A    ","OK ","OK ",    001131.459,    -081.123,    -170.776,    0002.046,    0077.564
"FRM_AIS_EDR_2251.DAT           ",2005-10-15T00:27:57.02 ,"1/0077416072.00408",    0,    5,  274896,"AIS","B1","B1","B1","B1","PISd",0,0,0,0,"B1", 0,15,   0, 0,    0,"AIS","N/A    ","OK ","OK ",    001121.217,    -081.432,    -169.953,    0002.103,    0077.236
"FRM_AIS_EDR_2251.DAT           ",2005-10-15T00:28:04.57 ,"1/0077416079.36008",    0,    6,  274896,"AIS","B1","B1","B1","B1","PISd",0,0,0,0,"B1", 0,15,   0, 0,    0,"AIS","N/A    ","OK ","OK ",    001111.007,    -081.740,    -169.063,    0002.164,    0076.906
"FRM_AIS_EDR_2251.DAT           ",2005-10-15T00:28:12.11 ,"1/0077416087.06071",    0,    7,  274896,"AIS","B1","B1","B1","B1","PISd",0,0,0,0,"B1", 0,15,   0, 0,    0,"AIS","N/A    ","OK ","OK ",    001100.831,    -082.047,    -168.097,    0002.230,    0076.575
"FRM_AIS_EDR_2251.DAT           ",2005-10-15T00:28:19.65 ,"1/0077416094.41670",    0,    8,  274896,"AIS","B1","B1","B1","B1","PISd",0,0,0,0,"B1", 0,15,   0, 0,    0,"AIS","N/A    ","OK ","OK ",    001090.689,    -082.353,    -167.047,    0002.303,    0076.242
"FRM_AIS_EDR_2251.DAT           ",2005-10-15T00:28:27.20 ,"1/0077416102.11734",    0,    9,  274896,"AIS","B1","B1","B1","B1","PISd",0,0,0,0,"B1", 0,15,   0, 0,    0,"AIS","N/A    ","OK ","OK ",    001080.581,    -082.658,    -165.903,    0002.381,    0075.907
"FRM_AIS_EDR_2251.DAT           ",2005-10-15T00:28:34.74 ,"1/0077416109.47333",    0,   10,  274896,"AIS","B1","B1","B1","B1","PISd",0,0,0,0,"B1", 0,15,   0, 0,    0,"AIS","N/A    ","OK ","OK ",    001070.508,    -082.960,    -164.652,    0002.466,    0075.571
"FRM_AIS_EDR_2251.DAT           ",2005-10-15T00:28:42.28 ,"1/0077416117.17396",    0,   11,  274896,"AIS","B1","B1","B1","B1","PISd",0,0,0,0,"B1", 0,15,   0, 0,    0,"AIS","N/A    ","OK ","OK ",    001060.471,    -083.260,    -163.280,    0002.560,    0075.234
"FRM_AIS_EDR_2251.DAT           ",2005-10-15T00:28:49.83 ,"1/0077416124.52996",    0,   12,  274896,"AIS","B1","B1","B1","B1","PISd",0,0,0,0,"B1", 0,15,   0, 0,    0,"AIS","N/A    ","OK ","OK ",    001050.470,    -083.557,    -161.773,    0002.662,    0074.895
"FRM_AIS_EDR_2251.DAT           ",2005-10-15T00:28:57.37 ,"1/0077416132.23059",    0,   13,  274896,"AIS","B1","B1","B1","B1","PISd",0,0,0,0,"B1", 0,15,   0, 0,    0,"AIS","N/A    ","OK ","OK ",    001040.505,    -083.851,    -160.110,    0002.775,    0074.555
"FRM_AIS_EDR_2251.DAT           ",2005-10-15T00:29:04.91 ,"1/0077416139.58658",    0,   14,  274896,"AIS","B1","B1","B1","B1","PISd",0,0,0,0,"B1", 0,15,   0, 0,    0,"AIS","N/A    ","OK ","OK ",    001030.577,    -084.140,    -158.272,    0002.900,    0074.213
"FRM_AIS_EDR_2251.DAT           ",2005-10-15T00:29:12.46 ,"1/0077416147.28722",    0,   15,  274896,"AIS","B1","B1","B1","B1","PISd",0,0,0,0,"B1", 0,15,   0, 0,    0,"AIS","N/A    ","OK ","OK ",    001020.687,    -084.423,    -156.233,    0003.038,    0073.869
"FRM_AIS_EDR_2251.DAT           ",2005-10-15T00:29:20.00 ,"1/0077416154.64321",    0,   16,  274896,"AIS","B1","B1","B1","B1","PISd",0,0,0,0,"B1", 0,15,   0, 0,    0,"AIS","N/A    ","OK ","OK ",    001010.834,    -084.699,    -153.966,    0003.191,    0073.524
"FRM_AIS_EDR_2251.DAT           ",2005-10-15T00:29:27.54 ,"1/0077416162.34384",    0,   17,  274896,"AIS","B1","B1","B1","B1","PISd",0,0,0,0,"B1", 0,15,   0, 0,    0,"AIS","N/A    ","OK ","OK ",    001001.021,    -084.967,    -151.440,    0003.361,    0073.178
"FRM_AIS_EDR_2251.DAT           ",2005-10-15T00:29:35.08 ,"1/0077416170.04448",    0,   18,  274896,"AIS","B1","B1","B1","B1","PISd",0,0,0,0,"B1", 0,15,   0, 0,    0,"AIS","N/A    ","OK ","OK ",    000991.246,    -085.225,    -148.620,    0003.551,    0072.830
"FRM_AIS_EDR_2251.DAT           ",2005-10-15T00:29:42.63 ,"1/0077416177.40047",    0,   19,  274896,"AIS","B1","B1","B1","B1","PISd",0,0,0,0,"B1", 0,15,   0, 0,    0,"AIS","N/A    ","OK ","OK ",    000981.511,    -085.472,    -145.468,    0003.763,    0072.480
"FRM_AIS_EDR_2251.DAT           ",2005-10-15T00:29:50.17 ,"1/0077416185.10110",    0,   20,  274896,"AIS","B1","B1","B1","B1","PISd",0,0,0,0,"B1", 0,15,   0, 0,    0,"AIS","N/A    ","OK ","OK ",    000971.817,    -085.703,    -141.947,    0004.000,    0072.129
"FRM_AIS_EDR_2251.DAT           ",2005-10-15T00:29:57.71 ,"1/0077416192.45710",    0,   21,  274896,"AIS","B1","B1","B1","B1","PISd",0,0,0,0,"B1", 0,15,   0, 0,    0,"AIS","N/A    ","OK ","OK ",    000962.163,    -085.918,    -138.020,    0004.264,    0071.776
"FRM_AIS_EDR_2251.DAT           ",2005-10-15T00:30:05.26 ,"1/0077416200.15773",    0,   22,  274896,"AIS","B1","B1","B1","B1","PISd",0,0,0,0,"B1", 0,15,   0, 0,    0,"AIS","N/A    ","OK ","OK ",    000952.550,    -086.111,    -133.658,    0004.557,    0071.422
"FRM_AIS_EDR_2251.DAT           ",2005-10-15T00:30:12.80 ,"1/0077416207.51372",    0,   23,  274896,"AIS","B1","B1","B1","B1","PISd",0,0,0,0,"B1", 0,15,   0, 0,    0,"AIS","N/A    ","OK ","OK ",    000942.979,    -086.281,    -128.846,    0004.880,    0071.066
"FRM_AIS_EDR_2251.DAT           ",2005-10-15T00:30:20.34 ,"1/0077416215.21436",    0,   24,  274896,"AIS","B1","B1","B1","B1","PISd",0,0,0,0,"B1", 0,15,   0, 0,    0,"AIS","N/A    ","OK ","OK ",    000933.451,    -086.422,    -123.590,    0005.232,    0070.709
"FRM_AIS_EDR_2251.DAT           ",2005-10-15T00:30:27.89 ,"1/0077416222.57035",    0,   25,  274896,"AIS","B1","B1","B1","B1","PISd",0,0,0,0,"B1", 0,15,   0, 0,    0,"AIS","N/A    ","OK ","OK ",    000923.965,    -086.530,    -117.928,    0005.612,    0070.350
"FRM_AIS_EDR_2251.DAT           ",2005-10-15T00:30:35.43 ,"1/0077416230.27098",    0,   26,  274896,"AIS","B1","B1","B1","B1","PISd",0,0,0,0,"B1", 0,15,   0, 0,    0,"AIS","N/A    ","OK ","OK ",    000914.524,    -086.603,    -111.935,    0006.013,    0069.989
"FRM_AIS_EDR_2251.DAT           ",2005-10-15T00:30:42.97 ,"1/0077416237.62698",    0,   27,  274896,"AIS","B1","B1","B1","B1","PISd",0,0,0,0,"B1", 0,15,   0, 0,    0,"AIS","N/A    ","OK ","OK ",    000905.126,    -086.637,    -105.723,    0006.429,    0069.627
"FRM_AIS_EDR_2251.DAT           ",2005-10-15T00:30:50.52 ,"1/0077416245.32761",    0,   28,  274896,"AIS","B1","B1","B1","B1","PISd",0,0,0,0,"B1", 0,15,   0, 0,    0,"AIS","N/A    ","OK ","OK ",    000895.773,    -086.631,    -099.431,    0006.851,    0069.264
"FRM_AIS_EDR_2251.DAT           ",2005-10-15T00:30:58.06 ,"1/0077416253.02824",    0,   29,  274896,"AIS","B1","B1","B1","B1","PISd",0,0,0,0,"B1", 0,15,   0, 0,    0,"AIS","N/A    ","OK ","OK ",    000886.465,    -086.583,    -093.212,    0007.268,    0068.898
"FRM_AIS_EDR_2251.DAT           ",2005-10-15T00:31:05.60 ,"1/0077416260.38424",    0,   30,  274896,"AIS","B1","B1","B1","B1","PISd",0,0,0,0,"B1", 0,15,   0, 0,    0,"AIS","N/A    ","OK ","OK ",    000877.203,    -086.496,    -087.207,    0007.670,    0068.532
"FRM_AIS_EDR_2251.DAT           ",2005-10-15T00:31:13.15 ,"1/0077416268.08487",    0,   31,  274896,"AIS","B1","B1","B1","B1","PISd",0,0,0,0,"B1", 0,15,   0, 0,    0,"AIS","N/A    ","OK ","OK ",    000867.987,    -086.372,    -081.529,    0008.051,    0068.163
"FRM_AIS_EDR_2251.DAT           ",2005-10-15T00:31:20.69 ,"1/0077416275.44086",    0,   32,  274896,"AIS","B1","B1","B1","B1","PISd",0,0,0,0,"B1", 0,15,   0, 0,    0,"AIS","N/A    ","OK ","OK ",    000858.819,    -086.214,    -076.255,    0008.404,    0067.793
"FRM_AIS_EDR_2251.DAT           ",2005-10-15T00:31:28.23 ,"1/0077416283.14150",    0,   33,  274896,"AIS","B1","B1","B1","B1","PISd",0,0,0,0,"B1", 0,15,   0, 0,    0,"AIS","N/A    ","OK ","OK ",    000849.698,    -086.025,    -071.424,    0008.728,    0067.422
"FRM_AIS_EDR_2251.DAT           ",2005-10-15T00:31:35.78 ,"1/0077416290.49749",    0,   34,  274896,"AIS","B1","B1","B1","B1","PISd",0,0,0,0,"B1", 0,15,   0, 0,    0,"AIS","N/A    ","OK ","OK ",    000840.625,    -085.809,    -067.043,    0009.023,    0067.048
"FRM_AIS_EDR_2251.DAT           ",2005-10-15T00:31:43.32 ,"1/0077416298.19812",    0,   35,  274896,"AIS","B1","B1","B1","B1","PISd",0,0,0,0,"B1", 0,15,   0, 0,    0,"AIS","N/A    ","OK ","OK ",    000831.601,    -085.570,    -063.098,    0009.287,    0066.674
"FRM_AIS_EDR_2251.DAT           ",2005-10-15T00:31:50.86 ,"1/0077416305.55412",    0,   36,  274896,"AIS","B1","B1","B1","B1","PISd",0,0,0,0,"B1", 0,15,   0, 0,    0,"AIS","N/A    ","OK ","OK ",    000822.626,    -085.311,    -059.560,    0009.525,    0066.297
"FRM_AIS_EDR_2251.DAT           ",2005-10-15T00:31:58.41 ,"1/0077416313.25475",    0,   37,  274896,"AIS","B1","B1","B1","B1","PISd",0,0,0,0,"B1", 0,15,   0, 0,    0,"AIS","N/A    ","OK ","OK ",    000813.702,    -085.035,    -056.393,    0009.739,    0065.919
"FRM_AIS_EDR_2251.DAT           ",2005-10-15T00:32:05.95 ,"1/0077416320.61074",    0,   38,  274896,"AIS","B1","B1","B1","B1","PISd",0,0,0,0,"B1", 0,15,   0, 0,    0,"AIS","N/A    ","OK ","OK ",    000804.828,    -084.743,    -053.559,    0009.929,    0065.540
"FRM_AIS_EDR_2251.DAT           ",2005-10-15T00:32:13.49 ,"1/0077416328.31138",    0,   39,  274896,"AIS","B1","B1","B1","B1","PISd",0,0,0,0,"B1", 0,15,   0, 0,    0,"AIS","N/A    ","OK ","OK ",    000796.005,    -084.438,    -051.021,    0010.101,    0065.159
"FRM_AIS_EDR_2251.DAT           ",2005-10-15T00:32:21.04 ,"1/0077416336.01201",    0,   40,  274896,"AIS","B1","B1","B1","B1","PISd",0,0,0,0,"B1", 0,15,   0, 0,    0,"AIS","N/A    ","OK ","OK ",    000787.234,    -084.123,    -048.743,    0010.255,    0064.776
"FRM_AIS_EDR_2251.DAT           ",2005-10-15T00:32:28.58 ,"1/0077416343.36800",    0,   41,  274896,"AIS","B1","B1","B1","B1","PISd",0,0,0,0,"B1", 0,15,   0, 0,    0,"AIS","N/A    ","OK ","OK ",    000778.515,    -083.797,    -046.695,    0010.393,    0064.392
"FRM_AIS_EDR_2251.DAT           ",2005-10-15T00:32:36.12 ,"1/0077416351.06864",    0,   42,  274896,"AIS","B1","B1","B1","B1","PISd",0,0,0,0,"B1", 0,15,   0, 0,    0,"AIS","N/A    ","OK ","OK ",    000769.850,    -083.462,    -044.848,    0010.518,    0064.006
"FRM_AIS_EDR_2251.DAT           ",2005-10-15T00:32:43.66 ,"1/0077416358.42463",    0,   43,  274896,"AIS","B1","B1","B1","B1","PISd",0,0,0,0,"B1", 0,15,   0, 0,    0,"AIS","N/A    ","OK ","OK ",    000761.238,    -083.120,    -043.178,    0010.632,    0063.618
"FRM_AIS_EDR_2251.DAT           ",2005-10-15T00:32:51.21 ,"1/0077416366.12526",    0,   44,  274896,"AIS","B1","B1","B1","B1","PISd",0,0,0,0,"B1", 0,15,   0, 0,    0,"AIS","N/A    ","OK ","OK ",    000752.681,    -082.771,    -041.664,    0010.735,    0063.229
"FRM_AIS_EDR_2251.DAT           ",2005-10-15T00:32:58.75 ,"1/0077416373.48126",    0,   45,  274896,"AIS","B1","B1","B1","B1","PISd",0,0,0,0,"B1", 0,15,   0, 0,    0,"AIS","N/A    ","OK ","OK ",    000744.178,    -082.416,    -040.286,    0010.829,    0062.838
"FRM_AIS_EDR_2251.DAT           ",2005-10-15T00:33:06.29 ,"1/0077416381.18189",    0,   46,  274896,"AIS","B1","B1","B1","B1","PISd",0,0,0,0,"B1", 0,15,   0, 0,    0,"AIS","N/A    ","OK ","OK ",    000735.731,    -082.055,    -039.030,    0010.914,    0062.446
"FRM_AIS_EDR_2251.DAT           ",2005-10-15T00:33:13.84 ,"1/0077416388.53788",    0,   47,  274896,"AIS","B1","B1","B1","B1","PISd",0,0,0,0,"B1", 0,15,   0, 0,    0,"AIS","N/A    ","OK ","OK ",    000727.341,    -081.689,    -037.880,    0010.993,    0062.052
"FRM_AIS_EDR_2251.DAT           ",2005-10-15T00:33:21.38 ,"1/0077416396.23852",    0,   48,  274896,"AIS","B1","B1","B1","B1","PISd",0,0,0,0,"B1", 0,15,   0, 0,    0,"AIS","N/A    ","OK ","OK ",    000719.007,    -081.319,    -036.826,    0011.065,    0061.657
"FRM_AIS_EDR_2251.DAT           ",2005-10-15T00:33:28.92 ,"1/0077416403.59451",    0,   49,  274896,"AIS","B1","B1","B1","B1","PISd",0,0,0,0,"B1", 0,15,   0, 0,    0,"AIS","N/A    ","OK ","OK ",    000710.730,    -080.944,    -035.856,    0011.132,    0061.260
"FRM_AIS_EDR_2251.DAT           ",2005-10-15T00:33:36.47 ,"1/0077416411.29514",    0,   50,  274896,"AIS","B1","B1","B1","B1","PISd",0,0,0,0,"B1", 0,15,   0, 0,    0,"AIS","N/A    ","OK ","OK ",    000702.512,    -080.565,    -034.962,    0011.194,    0060.861
"FRM_AIS_EDR_2251.DAT           ",2005-10-15T00:33:44.01 ,"1/0077416418.65114",    0,   51,  274896,"AIS","B1","B1","B1","B1","PISd",0,0,0,0,"B1", 0,15,   0, 0,    0,"AIS","N/A    ","OK ","OK ",    000694.352,    -080.182,    -034.136,    0011.251,    0060.461
"FRM_AIS_EDR_2251.DAT           ",2005-10-15T00:33:51.55 ,"1/0077416426.35177",    0,   52,  274896,"AIS","B1","B1","B1","B1","PISd",0,0,0,0,"B1", 0,15,   0, 0,    0,"AIS","N/A    ","OK ","OK ",    000686.252,    -079.796,    -033.370,    0011.304,    0060.059
"FRM_AIS_EDR_2251.DAT           ",2005-10-15T00:33:59.10 ,"1/0077416434.05240",    0,   53,  274896,"AIS","B1","B1","B1","B1","PISd",0,0,0,0,"B1", 0,15,   0, 0,    0,"AIS","N/A    ","OK ","OK ",    000678.212,    -079.406,    -032.660,    0011.353,    0059.655
"FRM_AIS_EDR_2251.DAT           ",2005-10-15T00:34:06.64 ,"1/0077416441.40840",    0,   54,  274896,"AIS","B1","B1","B1","B1","PISd",0,0,0,0,"B1", 0,15,   0, 0,    0,"AIS","N/A    ","OK ","OK ",    000670.233,    -079.013,    -031.998,    0011.399,    0059.250
"FRM_AIS_EDR_2251.DAT           ",2005-10-15T00:34:14.18 ,"1/0077416449.10903",    0,   55,  274896,"AIS","B1","B1","B1","B1","PISd",0,0,0,0,"B1", 0,15,   0, 0,    0,"AIS","N/A    ","OK ","OK ",    000662.314,    -078.617,    -031.382,    0011.443,    0058.844
"FRM_AIS_EDR_2251.DAT           ",2005-10-15T00:34:21.73 ,"1/0077416456.46502",    0,   56,  274896,"AIS","B1","B1","B1","B1","PISd",0,0,0,0,"B1", 0,15,   0, 0,    0,"AIS","N/A    ","OK ","OK ",    000654.458,    -078.219,    -030.806,    0011.483,    0058.436
"FRM_AIS_EDR_2251.DAT           ",2005-10-15T00:34:29.27 ,"1/0077416464.16566",    0,   57,  274896,"AIS","B1","B1","B1","B1","PISd",0,0,0,0,"B1", 0,15,   0, 0,    0,"AIS","N/A    ","OK ","OK ",    000646.665,    -077.817,    -030.268,    0011.521,    0058.026
"FRM_AIS_EDR_2251.DAT           ",2005-10-15T00:34:36.81 ,"1/0077416471.52165",    0,   58,  274896,"AIS","B1","B1","B1","B1","PISd",0,0,0,0,"B1", 0,15,   0, 0,    0,"AIS","N/A    ","OK ","OK ",    000638.935,    -077.413,    -029.763,    0011.557,    0057.615
"FRM_AIS_EDR_2251.DAT           ",2005-10-15T00:34:44.36 ,"1/0077416479.22228",    0,   59,  274896,"AIS","B1","B1","B1","B1","PISd",0,0,0,0,"B1", 0,15,   0, 0,    0,"AIS","N/A    ","OK ","OK ",    000631.269,    -077.007,    -029.289,    0011.590,    0057.202
"FRM_AIS_EDR_2251.DAT           ",2005-10-15T00:34:51.90 ,"1/0077416486.57828",    0,   60,  274896,"AIS","B1","B1","B1","B1","PISd",0,0,0,0,"B1", 0,15,   0, 0,    0,"AIS","N/A    ","OK ","OK ",    000623.667,    -076.598,    -028.844,    0011.622,    0056.787
"FRM_AIS_EDR_2251.DAT           ",2005-10-15T00:34:59.44 ,"1/0077416494.27891",    0,   61,  274896,"AIS","B1","B1","B1","B1","PISd",0,0,0,0,"B1", 0,15,   0, 0,    0,"AIS","N/A    ","OK ","OK ",    000616.131,    -076.186,    -028.425,    0011.652,    0056.371
"FRM_AIS_EDR_2251.DAT           ",2005-10-15T00:35:06.99 ,"1/0077416501.63490",    0,   62,  274896,"AIS","B1","B1","B1","B1","PISd",0,0,0,0,"B1", 0,15,   0, 0,    0,"AIS","N/A    ","OK ","OK ",    000608.661,    -075.773,    -028.029,    0011.680,    0055.954
"FRM_AIS_EDR_2251.DAT           ",2005-10-15T00:35:14.53 ,"1/0077416509.33554",    0,   63,  274896,"AIS","B1","B1","B1","B1","PISd",0,0,0,0,"B1", 0,15,   0, 0,    0,"AIS","N/A    ","OK ","OK ",    000601.257,    -075.357,    -027.656,    0011.707,    0055.535
"FRM_AIS_EDR_2251.DAT           ",2005-10-15T00:35:22.07 ,"1/0077416517.03617",    0,   64,  274896,"AIS","B1","B1","B1","B1","PISd",0,0,0,0,"B1", 0,15,   0, 0,    0,"AIS","N/A    ","OK ","OK ",    000593.920,    -074.939,    -027.303,    0011.733,    0055.114
"FRM_AIS_EDR_2251.DAT           ",2005-10-15T00:35:29.62 ,"1/0077416524.39216",    0,   65,  274896,"AIS","B1","B1","B1","B1","PISd",0,0,0,0,"B1", 0,15,   0, 0,    0,"AIS","N/A    ","OK ","OK ",    000586.652,    -074.518,    -026.970,    0011.757,    0054.692
"FRM_AIS_EDR_2251.DAT           ",2005-10-15T00:35:37.16 ,"1/0077416532.09280",    0,   66,  274896,"AIS","B1","B1","B1","B1","PISd",0,0,0,0,"B1", 0,15,   0, 0,    0,"AIS","N/A    ","OK ","OK ",    000579.452,    -074.096,    -026.654,    0011.780,    0054.269
"FRM_AIS_EDR_2251.DAT           ",2005-10-15T00:35:44.70 ,"1/0077416539.44879",    0,   67,  274896,"AIS","B1","B1","B1","B1","PISd",0,0,0,0,"B1", 0,15,   0, 0,    0,"AIS","N/A    ","OK ","OK ",    000572.321,    -073.671,    -026.354,    0011.802,    0053.844
"FRM_AIS_EDR_2251.DAT           ",2005-10-15T00:35:52.24 ,"1/0077416547.14942",    0,   68,  274896,"AIS","B1","B1","B1","B1","PISd",0,0,0,0,"B1", 0,15,   0, 0,    0,"AIS","N/A    ","OK ","OK ",    000565.260,    -073.245,    -026.069,    0011.823,    0053.417
"FRM_AIS_EDR_2251.DAT           ",2005-10-15T00:35:59.79 ,"1/0077416554.50542",    0,   69,  274896,"AIS","B1","B1","B1","B1","PISd",0,0,0,0,"B1", 0,15,   0, 0,    0,"AIS","N/A    ","OK ","OK ",    000558.270,    -072.817,    -025.799,    0011.843,    0052.989
"FRM_AIS_EDR_2251.DAT           ",2005-10-15T00:36:07.33 ,"1/0077416562.20605",    0,   70,  274896,"AIS","B1","B1","B1","B1","PISd",0,0,0,0,"B1", 0,15,   0, 0,    0,"AIS","N/A    ","OK ","OK ",    000551.351,    -072.386,    -025.542,    0011.863,    0052.559
"FRM_AIS_EDR_2251.DAT           ",2005-10-15T00:36:14.87 ,"1/0077416569.56204",    0,   71,  274896,"AIS","B1","B1","B1","B1","PISd",0,0,0,0,"B1", 0,15,   0, 0,    0,"AIS","N/A    ","OK ","OK ",    000544.503,    -071.954,    -025.297,    0011.881,    0052.128
"FRM_AIS_EDR_2251.DAT           ",2005-10-15T00:36:22.42 ,"1/0077416577.26268",    0,   72,  274896,"AIS","B1","B1","B1","B1","PISd",0,0,0,0,"B1", 0,15,   0, 0,    0,"AIS","N/A    ","OK ","OK ",    000537.729,    -071.520,    -025.064,    0011.898,    0051.696
"FRM_AIS_EDR_2251.DAT           ",2005-10-15T00:36:29.96 ,"1/0077416584.61867",    0,   73,  274896,"AIS","B1","B1","B1","B1","PISd",0,0,0,0,"B1", 0,15,   0, 0,    0,"AIS","N/A    ","OK ","OK ",    000531.027,    -071.084,    -024.842,    0011.915,    0051.262
"FRM_AIS_EDR_2251.DAT           ",2005-10-15T00:36:37.50 ,"1/0077416592.31930",    0,   74,  274896,"AIS","B1","B1","B1","B1","PISd",0,0,0,0,"B1", 0,15,   0, 0,    0,"AIS","N/A    ","OK ","OK ",    000524.400,    -070.646,    -024.630,    0011.931,    0050.826
"FRM_AIS_EDR_2251.DAT           ",2005-10-15T00:36:45.05 ,"1/0077416600.01994",    0,   75,  274896,"AIS","B1","B1","B1","B1","PISd",0,0,0,0,"B1", 0,15,   0, 0,    0,"AIS","N/A    ","OK ","OK ",    000517.846,    -070.207,    -024.427,    0011.947,    0050.389
"FRM_AIS_EDR_2251.DAT           ",2005-10-15T00:36:52.59 ,"1/0077416607.37593",    0,   76,  274896,"AIS","B1","B1","B1","B1","PISd",0,0,0,0,"B1", 0,15,   0, 0,    0,"AIS","N/A    ","OK ","OK ",    000511.368,    -069.765,    -024.234,    0011.962,    0049.951
"FRM_AIS_EDR_2251.DAT           ",2005-10-15T00:37:00.13 ,"1/0077416615.07656",    0,   77,  274896,"AIS","B1","B1","B1","B1","PISd",0,0,0,0,"B1", 0,15,   0, 0,    0,"AIS","N/A    ","OK ","OK ",    000504.966,    -069.322,    -024.049,    0011.976,    0049.511
"FRM_AIS_EDR_2251.DAT           ",2005-10-15T00:37:07.68 ,"1/0077416622.43256",    0,   78,  274896,"AIS","B1","B1","B1","B1","PISd",0,0,0,0,"B1", 0,15,   0, 0,    0,"AIS","N/A    ","OK ","OK ",    000498.640,    -068.878,    -023.872,    0011.990,    0049.070
"FRM_AIS_EDR_2251.DAT           ",2005-10-15T00:37:15.22 ,"1/0077416630.13319",    0,   79,  274896,"AIS","B1","B1","B1","B1","PISd",0,0,0,0,"B1", 0,15,   0, 0,    0,"AIS","N/A    ","OK ","OK ",    000492.392,    -068.431,    -023.702,    0012.004,    0048.628
"FRM_AIS_EDR_2251.DAT           ",2005-10-15T00:37:22.76 ,"1/0077416637.48918",    0,   80,  274896,"AIS","B1","B1","B1","B1","PISd",0,0,0,0,"B1", 0,15,   0, 0,    0,"AIS","N/A    ","OK ","OK ",    000486.221,    -067.984,    -023.540,    0012.016,    0048.184
"FRM_AIS_EDR_2251.DAT           ",2005-10-15T00:37:30.31 ,"1/0077416645.18982",    0,   81,  274896,"AIS","B1","B1","B1","B1","PISd",0,0,0,0,"B1", 0,15,   0, 0,    0,"AIS","N/A    ","OK ","OK ",    000480.128,    -067.534,    -023.384,    0012.029,    0047.739
"FRM_AIS_EDR_2251.DAT           ",2005-10-15T00:37:37.85 ,"1/0077416652.54581",    0,   82,  274896,"AIS","B1","B1","B1","B1","PISd",0,0,0,0,"B1", 0,15,   0, 0,    0,"AIS","N/A    ","OK ","OK ",    000474.115,    -067.083,    -023.235,    0012.041,    0047.292
"FRM_AIS_EDR_2251.DAT           ",2005-10-15T00:37:45.39 ,"1/0077416660.24644",    0,   83,  274896,"AIS","B1","B1","B1","B1","PISd",0,0,0,0,"B1", 0,15,   0, 0,    0,"AIS","N/A    ","OK ","OK ",    000468.181,    -066.630,    -023.092,    0012.052,    0046.844
"FRM_AIS_EDR_2251.DAT           ",2005-10-15T00:37:52.94 ,"1/0077416667.60244",    0,   84,  274896,"AIS","B1","B1","B1","B1","PISd",0,0,0,0,"B1", 0,15,   0, 0,    0,"AIS","N/A    ","OK ","OK ",    000462.327,    -066.176,    -022.955,    0012.064,    0046.395
"FRM_AIS_EDR_2251.DAT           ",2005-10-15T00:38:00.48 ,"1/0077416675.30307",    0,   85,  274896,"AIS","B1","B1","B1","B1","PISd",0,0,0,0,"B1", 0,15,   0, 0,    0,"AIS","N/A    ","OK ","OK ",    000456.555,    -065.720,    -022.823,    0012.074,    0045.944
"FRM_AIS_EDR_2251.DAT           ",2005-10-15T00:38:08.02 ,"1/0077416683.00370",    0,   86,  274896,"AIS","B1","B1","B1","B1","PISd",0,0,0,0,"B1", 0,15,   0, 0,    0,"AIS","N/A    ","OK ","OK ",    000450.864,    -065.262,    -022.696,    0012.085,    0045.492
"FRM_AIS_EDR_2251.DAT           ",2005-10-15T00:38:15.57 ,"1/0077416690.35969",    0,   87,  274896,"AIS","B1","B1","B1","B1","PISd",0,0,0,0,"B1", 0,15,   0, 0,    0,"AIS","N/A    ","OK ","OK ",    000445.255,    -064.804,    -022.574,    0012.095,    0045.039
"FRM_AIS_EDR_2251.DAT           ",2005-10-15T00:38:23.11 ,"1/0077416698.06033",    0,   88,  274896,"AIS","B1","B1","B1","B1","PISd",0,0,0,0,"B1", 0,15,   0, 0,    0,"AIS","N/A    ","OK ","OK ",    000439.729,    -064.343,    -022.457,    0012.105,    0044.585
"FRM_AIS_EDR_2251.DAT           ",2005-10-15T00:38:30.65 ,"1/0077416705.41632",    0,   89,  274896,"AIS","B1","B1","B1","B1","PISd",0,0,0,0,"B1", 0,15,   0, 0,    0,"AIS","N/A    ","OK ","OK ",    000434.287,    -063.882,    -022.345,    0012.114,    0044.129
"FRM_AIS_EDR_2251.DAT           ",2005-10-15T00:38:38.20 ,"1/0077416713.11695",    0,   90,  274896,"AIS","B1","B1","B1","B1","PISd",0,0,0,0,"B1", 0,15,   0, 0,    0,"AIS","N/A    ","OK ","OK ",    000428.928,    -063.418,    -022.236,    0012.124,    0043.672